Weather History for Wadena, MN

Change the Weather History Date:

Friday, May 17, 2013

  Actual Average Record
Temperature  
Mean Temperature 58 °F -  
Max Temperature 66 °F 70 °F 91 °F (1987)
Min Temperature 51 °F 44 °F 27 °F (1983)
Degree Days  
Heating Degree Days 6    
Growing Degree Days 8 (Base 50)    
Moisture  
Dew Point 42 °F    
Average Humidity 56    
Maximum Humidity 88    
Minimum Humidity 34    
Precipitation  
Precipitation 0.02 in - - ()
Sea Level Pressure  
Sea Level Pressure 29.94 in    
Wind  
Wind Speed 10 mph (ESE)    
Max Wind Speed 21 mph    
Max Gust Speed 25 mph    
Visibility 10 miles    
Events Rain    
Averages and records for this station are not official NWS values.
T = Trace of Precipitation, MM = Missing Value Source: NWS Daily Summary

Daily Weather History Graph

Daily Weather History Graph

Search for Another Location

Airport:

Trip Planner

Search our weather history database for the weather conditions in past years. The results will help you decide how hot, cold, wet, or windy it might be!

Date:

Astronomy

May. 17, 2013 Rise Set
Actual Time 5:44 AM CDT 8:50 PM CDT
Civil Twilight 5:08 AM CDT 9:26 PM CDT
Nautical Twilight 4:22 AM CDT 10:13 PM CDT
Astronomical Twilight 3:26 AM CDT 11:10 PM CDT
Moon 12:28 PM CDT (5/17) 1:34 AM CDT (5/17)
Length of Visible Light 16h 17m
Length of Day
15h 05m
Waxing Crescent, 45% of the Moon is Illuminated
May 17
Waxing Crescent
May 17
First Quarter
May 24
Full
May 31
Last Quarter
Jun 8
New

Hourly Weather History & Observations

Time (CDT) Temp. Dew Point Humidity Pressure Visibility Wind Dir Wind Speed Gust Speed Precip Events Conditions
12:15 AM 62.6 °F 33.8 °F 34% 29.91 in 10.0 mi East 6.9 mph - N/A   Mostly Cloudy
12:35 AM 62.6 °F 33.8 °F 34% 29.91 in 10.0 mi ESE 10.4 mph - N/A   Scattered Clouds
12:52 AM 60.8 °F 33.8 °F 36% 29.91 in 10.0 mi ESE 9.2 mph - N/A   Clear
1:14 AM 60.8 °F 33.8 °F 36% 29.92 in 10.0 mi East 5.8 mph - N/A   Clear
1:35 AM 60.8 °F 33.8 °F 36% 29.93 in 10.0 mi East 4.6 mph - N/A   Clear
1:53 AM 59.0 °F 33.8 °F 39% 29.93 in 10.0 mi ENE 4.6 mph - N/A   Clear
2:15 AM 57.2 °F 33.8 °F 41% 29.94 in 10.0 mi ENE 4.6 mph - N/A   Mostly Cloudy
2:35 AM 57.2 °F 33.8 °F 41% 29.94 in 10.0 mi East 5.8 mph - N/A   Scattered Clouds
2:52 AM 57.2 °F 33.8 °F 41% 29.93 in 10.0 mi East 8.1 mph - N/A   Mostly Cloudy
3:15 AM 57.2 °F 33.8 °F 41% 29.93 in 10.0 mi ENE 8.1 mph - N/A   Overcast
3:35 AM 57.2 °F 33.8 °F 41% 29.93 in 10.0 mi ENE 6.9 mph - N/A   Overcast
3:52 AM 55.4 °F 33.8 °F 44% 29.93 in 10.0 mi ENE 8.1 mph - N/A   Overcast
4:15 AM 55.4 °F 30.2 °F 38% 29.92 in 10.0 mi ENE 9.2 mph - N/A   Mostly Cloudy
4:35 AM 55.4 °F 30.2 °F 38% 29.92 in 10.0 mi ENE 9.2 mph - N/A   Mostly Cloudy
4:53 AM 55.4 °F 30.2 °F 38% 29.92 in 10.0 mi ENE 8.1 mph - N/A   Overcast
5:14 AM 55.4 °F 30.2 °F 38% 29.92 in 10.0 mi ENE 9.2 mph - N/A   Overcast
5:35 AM 53.6 °F 30.2 °F 41% 29.93 in 10.0 mi East 8.1 mph - N/A   Overcast
5:52 AM 53.6 °F 30.2 °F 41% 29.94 in 10.0 mi East 9.2 mph - N/A   Overcast
6:15 AM 53.6 °F 30.2 °F 41% 29.94 in 10.0 mi East 8.1 mph - N/A   Overcast
6:35 AM 53.6 °F 32.0 °F 44% 29.94 in 10.0 mi East 11.5 mph - N/A   Overcast
6:53 AM 53.6 °F 32.0 °F 44% 29.95 in 10.0 mi East 9.2 mph - N/A   Mostly Cloudy
7:15 AM 53.6 °F 33.8 °F 47% 29.97 in 10.0 mi East 11.5 mph - N/A   Scattered Clouds
7:34 AM 53.6 °F 33.8 °F 47% 29.97 in 10.0 mi East 10.4 mph - N/A   Scattered Clouds
7:53 AM 53.6 °F 33.8 °F 47% 29.98 in 10.0 mi East 9.2 mph - N/A   Mostly Cloudy
8:15 AM 51.8 °F 33.8 °F 50% 29.98 in 10.0 mi East 10.4 mph - N/A   Overcast
8:35 AM 51.8 °F 33.8 °F 50% 29.98 in 10.0 mi East 10.4 mph - N/A   Overcast
8:52 AM 51.8 °F 35.6 °F 54% 29.98 in 10.0 mi East 11.5 mph - N/A   Overcast
9:14 AM 53.6 °F 35.6 °F 51% 29.98 in 10.0 mi East 12.7 mph 16.1 mph N/A   Overcast
9:35 AM 55.4 °F 37.4 °F 51% 29.97 in 10.0 mi East 12.7 mph 17.3 mph N/A   Overcast
9:53 AM 55.4 °F 37.4 °F 51% 29.97 in 10.0 mi ESE 11.5 mph 17.3 mph N/A   Overcast
10:15 AM 55.4 °F 37.4 °F 51% 29.97 in 10.0 mi East 13.8 mph 19.6 mph N/A   Scattered Clouds
10:35 AM 57.2 °F 39.2 °F 51% 29.96 in 10.0 mi East 11.5 mph - N/A   Clear
10:53 AM 59.0 °F 41.0 °F 51% 29.96 in 10.0 mi ESE 17.3 mph 21.9 mph N/A   Clear
11:13 AM 60.8 °F 42.8 °F 52% 29.95 in 10.0 mi East 15.0 mph 20.7 mph N/A   Clear
11:34 AM 60.8 °F 44.6 °F 55% 29.96 in 10.0 mi ESE 13.8 mph 18.4 mph N/A   Clear
11:52 AM 62.6 °F 44.6 °F 52% 29.96 in 10.0 mi ESE 10.4 mph - N/A   Clear
12:15 PM 62.6 °F 44.6 °F 52% 29.95 in 10.0 mi ESE 13.8 mph 20.7 mph N/A   Clear
12:35 PM 62.6 °F 44.6 °F 52% 29.95 in 10.0 mi SE 15.0 mph 21.9 mph N/A   Scattered Clouds
12:52 PM 64.4 °F 44.6 °F 49% 29.95 in 10.0 mi East 11.5 mph 20.7 mph N/A   Mostly Cloudy
1:15 PM 64.4 °F 46.4 °F 52% 29.94 in 10.0 mi ESE 13.8 mph 20.7 mph N/A   Overcast
1:35 PM 66.2 °F 46.4 °F 49% 29.94 in 10.0 mi ESE 15.0 mph 20.7 mph N/A   Mostly Cloudy
1:52 PM 64.4 °F 44.6 °F 49% 29.94 in 10.0 mi ESE 15.0 mph 23.0 mph N/A   Mostly Cloudy
2:15 PM 66.2 °F 46.4 °F 49% 29.94 in 10.0 mi ESE 15.0 mph 21.9 mph N/A   Overcast
2:35 PM 66.2 °F 48.2 °F 52% 29.93 in 10.0 mi ESE 18.4 mph 24.2 mph N/A   Mostly Cloudy
2:53 PM 66.2 °F 50.0 °F 56% 29.92 in 10.0 mi SE 17.3 mph 24.2 mph N/A   Overcast
3:15 PM 66.2 °F 48.2 °F 52% 29.93 in 10.0 mi SE 20.7 mph 25.3 mph N/A   Overcast
3:35 PM 64.4 °F 48.2 °F 56% 29.93 in 10.0 mi ESE 17.3 mph - N/A   Overcast
3:53 PM 64.4 °F 48.2 °F 56% 29.93 in 10.0 mi SE 17.3 mph 21.9 mph N/A   Overcast
4:15 PM 62.6 °F 48.2 °F 59% 29.93 in 10.0 mi SE 17.3 mph - N/A   Overcast
4:35 PM 62.6 °F 48.2 °F 59% 29.93 in 10.0 mi SE 16.1 mph 19.6 mph N/A   Overcast
4:53 PM 62.6 °F 48.2 °F 59% 29.93 in 10.0 mi SE 16.1 mph - N/A   Overcast
5:14 PM 60.8 °F 48.2 °F 63% 29.93 in 10.0 mi ESE 16.1 mph - N/A   Overcast
5:34 PM 60.8 °F 50.0 °F 68% 29.93 in 10.0 mi ESE 13.8 mph - N/A   Overcast
5:53 PM 60.8 °F 50.0 °F 68% 29.93 in 10.0 mi SE 12.7 mph - N/A   Overcast
6:15 PM 60.8 °F 51.8 °F 72% 29.93 in 10.0 mi ESE 15.0 mph 21.9 mph N/A   Overcast
6:35 PM 60.8 °F 51.8 °F 72% 29.93 in 10.0 mi SE 16.1 mph - N/A   Overcast
6:53 PM 59.0 °F 50.0 °F 72% 29.93 in 10.0 mi SE 16.1 mph - N/A   Overcast
7:15 PM 59.0 °F 50.0 °F 72% 29.93 in 10.0 mi SE 10.4 mph - N/A   Overcast
7:34 PM 60.8 °F 50.0 °F 68% 29.93 in 10.0 mi SE 13.8 mph - N/A   Overcast
7:53 PM 59.0 °F 50.0 °F 72% 29.92 in 10.0 mi ESE 17.3 mph - N/A   Overcast
8:15 PM 57.2 °F 51.8 °F 82% 29.92 in 10.0 mi ESE 9.2 mph - N/A Rain Light Rain
8:35 PM 55.4 °F 51.8 °F 88% 29.92 in 10.0 mi ESE 9.2 mph - 0.02 in Rain Light Rain
8:53 PM 55.4 °F 51.8 °F 88% 29.92 in 10.0 mi ESE 9.2 mph - 0.02 in   Overcast
9:15 PM 55.4 °F 51.8 °F 88% 29.92 in 10.0 mi ESE 8.1 mph - N/A   Overcast
9:35 PM 55.4 °F 51.8 °F 88% 29.93 in 10.0 mi SE 12.7 mph - N/A   Overcast
9:52 PM 55.4 °F 51.8 °F 88% 29.93 in 10.0 mi ESE 16.1 mph - N/A   Overcast
10:15 PM 55.4 °F 51.8 °F 88% 29.94 in 10.0 mi ESE 15.0 mph - N/A   Overcast
10:35 PM 55.4 °F 51.8 °F 88% 29.94 in 10.0 mi ESE 12.7 mph - N/A   Overcast
10:52 PM 55.4 °F 51.8 °F 88% 29.95 in 10.0 mi ESE 8.1 mph - N/A   Overcast
11:35 PM 55.4 °F 51.8 °F 88% 29.93 in 10.0 mi ESE 12.7 mph - N/A   Overcast
11:52 PM 55.4 °F 51.8 °F 88% 29.93 in 10.0 mi ESE 10.4 mph - N/A   Overcast